Miscellaneous Local Product
Issued by NWS North Platte, NE

Home | Current Version | Previous Version | Text Only | Print | Product List | Glossary On
Versions: 1 2 3 4 5 6 7 8 9 10 11 12 13 14 15 16 17 18 19 20 21 22 23 24 25 26 27 28 29 30 31 32 33 34 35 36 37 38 39 40 41 42 43 44 45 46 47 48 49 50
000
AXUS43 KLBF 271810
MISLBF


WESTERN AND NORTH CENTRAL NEBRASKA HOURLY WEATHER ROUNDUP
NATIONAL WEATHER SERVICE NORTH PLATTE NE
100 PM CDT FRI MAR 27 2015

***STATIONS NOT REPORTING VARIABLES SUCH AS SKY/WEATHER OR
PRESSURE ARE PROVIDED BY THE NEBRASKA DEPARTMENT OF
ROADS...RAWS...AND APRS NETWORKS...AND ARE NOT UNDER
NATIONAL WEATHER SERVICE QUALITY CONTROL***

...OBSERVATIONS IN AND NEAR THE EASTERN PANHANDLE OF NEBRASKA...

CITY           SKY/WX    TMP DP  RH WIND       PRES   REMARKS
PINE RIDGE     PTSUNNY   62  36  37 W18G26    30.00F
CHADRON        MOSUNNY   62  39  42 NW23G29   30.03F
ALLIANCE       MOSUNNY   64  35  34 NW26G32   30.04F
SIDNEY         PTSUNNY   60  37  42 NW23      30.10F
WHITECLAY        N/A     61  37  41 W15         N/A
CRESCENT LAKE    N/A     62  38  41 NW17G28     N/A
BIG SPRINGS      N/A     52  41  65 W12         N/A
$$

...OBSERVATIONS IN NORTH CENTRAL NEBRASKA...

CITY           SKY/WX    TMP DP  RH WIND       PRES   REMARKS
VALENTINE      CLOUDY    46  32  58 S14       30.02F
THEDFORD       CLOUDY    45  35  68 SW15G24   30.07F
AINSWORTH      CLOUDY    42  31  67 S15G21    30.06F
O`NEILL        LGT SNOW  34  29  83 S10       30.15F WCI  26
ORD            CLOUDY    34  24  67 S10       30.16F WCI  26
BROKEN BOW     CLOUDY    40  28  62 S20G28    30.12F WCI  30
BROWNLEE         N/A     48  36  63 SW23        N/A
SPRINGVIEW       N/A     38  29  70 S8          N/A  WCI  32
BREWSTER         N/A     40  29  66 S18         N/A  WCI  31
ROSE             N/A     37  30  78 SE15        N/A  WCI  28
NEWPORT          N/A     35  31  84 S10         N/A  WCI  27
SARGENT          N/A     36  28  73 SW3G12      N/A
COMSTOCK         N/A     38  28  66 S8          N/A  WCI  33
EWING            N/A     34  29  82 S7          N/A  WCI  28
$$

...OBSERVATIONS IN SOUTHWEST NEBRASKA AND FAR NORTHEAST COLORADO...

CITY           SKY/WX    TMP DP  RH WIND       PRES   REMARKS
WRAY           FAIR      62  35  37 W12       30.11F
HOLYOKE        FAIR      63  36  36 W10G21    30.09F
IMPERIAL         N/A     53  35  50 SW13      30.11F
OGALLALA       MOSUNNY   56  41  56 W14       30.07F
NORTH PLATTE   CLOUDY    43  34  70 SW16G22   30.12F
MCCOOK         CLOUDY    44  32  62 S13       30.16F
LEXINGTON      CLOUDY    42  29  60 S10G18    30.15F
PAXTON           N/A     42  38  86 SW12        N/A
SUTHERLAND       N/A     42  36  80 SW13        N/A
BRADY            N/A     40  32  74 S3          N/A
GOTHENBURG       N/A     37  28  71 S9          N/A  WCI  30
CALLAWAY         N/A     37  30  77 S17         N/A  WCI  27
$$

...NORTH PLATTE AREA...

CITY           SKY/WX    TMP DP  RH WIND       PRES   REMARKS
AIRPORT        CLOUDY    43  34  70 SW16G22   30.12F
DOWNTOWN         N/A     43  35  74 SW10G17     N/A
$$

...SOME WEATHER OBSERVATIONS FROM AROUND THE REGION...

CITY           SKY/WX    TMP DP  RH WIND       PRES   REMARKS
DENVER         PTSUNNY   61  29  29 SE7       30.16F
LARAMIE        SUNNY     54  28  36 W15       30.22F
CHEYENNE       MOSUNNY   57  28  33 NW21G35   30.16F
SCOTTSBLUFF    PTSUNNY   64  39  39 NW21      30.08F
RAPID CITY     MOSUNNY   65  37  35 N24G38    29.96F
PIERRE         CLOUDY    36  32  85 SE16G24   30.02F WCI  26
WINNER         CLOUDY    39  30  70 S17       30.06F WCI  30
SIOUX FALLS    CLOUDY    32   8  36 SW7       30.19F WCI  26
OMAHA          CLOUDY    37  16  42 CALM      30.26F
GRAND ISLAND   CLOUDY    37  23  56 S7        30.21F WCI  32
KANSAS CITY    MOSUNNY   41  21  44 N10G18    30.25F
WICHITA        PTSUNNY   45  28  51 N6        30.25F
HAYS           CLOUDY    43  21  42 E3        30.23F
LIBERAL        SUNNY     48  30  49 SE6       30.25F
GOODLAND       CLOUDY    56  33  42 SW17G25   30.13F
$$



USA.gov is the U.S. government's official web portal to all federal, state and local government web resources and services.